Regional Weather Roundup
Issued by NWS

Home | Current Version | Previous Version | Text Only | Print | Product List | Glossary Off
Versions: 1 2 3 4 5 6 7 8 9 10 11 12 13 14 15 16 17 18 19 20 21 22 23 24 25 26 27 28 29 30 31 32 33 34 35 36 37 38 39 40 41 42 43 44 45 46 47 48

000
ASUS43 KDMX 071407
RWRIA

WEATHER ROUNDUP FOR IOWA
NATIONAL WEATHER SERVICE DES MOINES IA
900 AM CDT TUE JUL 07 2015

NOTE: "FAIR" INDICATES FEW OR NO CLOUDS BELOW 12,000 FEET WITH NO
SIGNIFICANT WEATHER AND/OR OBSTRUCTIONS TO VISIBILITY.

* - THESE STATIONS ARE NOT NWS STATIONS...THUS NOT UNDER NWS
QUALITY CONTROL.  THEY ALSO DO NOT REPORT WEATHER SUCH
AS PRECIPITATION OR FOG.

IAZ001>003-012>014-020>022-031>034-043>046-071500-
   NORTHWEST IOWA

CITY           SKY/WX    TMP DP  RH WIND       PRES   REMARKS
CARROLL *      SUNNY     59  50  72 N12       30.16R
CHEROKEE *     SUNNY     57  50  77 NE12      30.19R
DENISON *      SUNNY     59  48  67 N13       30.15S
LE MARS *      SUNNY     59  50  72 NE9       30.21R
ORANGE CITY *  SUNNY     55  48  76 NE7       30.20R
SHELDON *      SUNNY     57  57 100 NE9G15    30.19R
SIOUX CITY     SUNNY     62  48  60 NE9       30.20R
SPENCER        SUNNY     60  49  66 N10       30.18R
STORM LAKE *   SUNNY     59  50  72 N14       30.18R
$$

IAZ055>058-069>071-079>083-090>094-071500-
   SOUTHWEST IOWA

CITY           SKY/WX    TMP DP  RH WIND       PRES   REMARKS
ATLANTIC *     SUNNY     61  50  67 NE10G18   30.14S
AUDUBON *      SUNNY     61  52  72 N10G17    30.16R
CLARINDA *     SUNNY     61  52  72 N12G21    30.13R
COUNCIL BLFS * SUNNY     61  50  67 N13       30.16S
CRESTON *      SUNNY     59  52  77 N16G22    30.10S
HARLAN  *      SUNNY     59  54  82 N14       30.19R
LAMONI         MOSUNNY   61  54  77 N15G22    30.08R
RED OAK *      SUNNY     61  52  72 N15G26    30.13S
SHENANDOAH *   SUNNY     63  50  63 NE13G22   30.13R
$$

IAZ047>049-059>061-072>074-084-071500-
   CENTRAL IOWA

CITY           SKY/WX    TMP DP  RH WIND       PRES   REMARKS
AMES           SUNNY     61  51  70 N13       30.11R
ANKENY *       SUNNY     61  54  77 N12G18    30.10R
CHARITON *     MOSUNNY   61  54  77 N14G21    30.08R
DES MOINES     MOSUNNY   63  51  65 N14       30.10R
GRINNELL*      SUNNY     59  54  82 N15G21    30.09R
KNOXVILLE *    SUNNY     61  54  77 N13       30.07R
MARSHALLTOWN   SUNNY     60  52  74 N14       30.09S
PELLA *        SUNNY     63  57  82 N9        30.09R
PERRY *          N/A     61  50  67 N10       30.13S
$$

IAZ004>006-015-016-023>025-035-036-071500-
   NORTH CENTRAL IOWA

CITY           SKY/WX    TMP DP  RH WIND       PRES   REMARKS
ALGONA *       SUNNY     59  50  72 N13G18    30.16S
CLARION *      SUNNY     59  50  72 NE14      30.14S
ESTHERVILLE    SUNNY     57  48  72 N15       30.18R
FORT DODGE *   SUNNY     59  48  67 N9        30.16S
MASON CITY     SUNNY     60  50  69 N16       30.15R
FOREST CITY *  SUNNY     57  48  72 N10       30.15S
IOWA FALLS *     N/A     61  50  67 N9G18     30.13R
$$

IAZ007>011-017>019-026>030-037>042-050>054-066-071500-
   NORTHEAST IOWA

CITY           SKY/WX    TMP DP  RH WIND       PRES   REMARKS
CEDAR RAPIDS   MOSUNNY   64  58  80 N13       30.05R HAZE
CHARLES CITY * SUNNY     61  50  67 N13       30.12S
CLINTON *      SUNNY     64  55  72 N13       30.04R
DECORAH *        N/A    N/A N/A N/A MISG        N/A
DUBUQUE        PTSUNNY   60  54  80 N9        30.05R HAZE
MONTICELLO *   CLOUDY    63  59  88 N9G15     30.05R HAZE
OELWEIN *        N/A    N/A N/A N/A N16       30.10R
WATERLOO       SUNNY     61  51  70 N17G23    30.09R
$$

IAZ064-065-067-068-078-071500-
   EAST CENTRAL IOWA

CITY           SKY/WX    TMP DP  RH WIND       PRES   REMARKS
DAVENPORT      PTSUNNY   65  57  75 N12G18    30.02R HAZE
IOWA CITY      SUNNY     65  56  72 NE14      30.05R HAZE
MT. PLEASANT *   N/A     68  55  64 N7        30.02R HAZE
MUSCATINE *    MOSUNNY   64  57  77 N12G18    30.03R HAZE
QUAD CITIES    CLOUDY    65  58  78 N9        30.00R HAZE
$$

IAZ062-063-075>077-085>089-095>099-071500-
   SOUTHEAST IOWA

CITY           SKY/WX    TMP DP  RH WIND       PRES   REMARKS
BURLINGTON     CLOUDY    64  59  83 N13       30.00R HAZE
FAIRFIELD *    SUNNY     64  57  77 N13       30.04R HAZE
FORT MADISON * PTSUNNY   64  59  82 N15       30.01R HAZE
KEOKUK *       PTSUNNY   64  61  88 N13G18    29.99R HAZE
OSKALOOSA *      N/A     63  55  77 N10G16    30.06R
CENTERVILLE *  SUNNY     63  57  82 N14       30.07R
OTTUMWA        MOSUNNY   63  57  81 N15       30.04R HAZE
WASHINGTON *   SUNNY     64  59  82 N14       30.05R HAZE
$$

ABBREVIATIONS USED IN REMARKS
   TC - TEMPERATURES IN CELSIUS
  WCI - WIND CHILL INDEX
   HX - HEAT INDEX
  VSB - VISIBILITY
$$




USA.gov is the U.S. government's official web portal to all federal, state and local government web resources and services.